Location: Lucerne Valley
(34.4439°N, 116.9669°E)
Time: 22:21:12
(UTC-07:00)

Vanguard 1 - All Passes

Search period start: 19 October 2017 00:00
Search period end: 29 October 2017 00:00
Orbit: 650 x 3834 km, 34.3° (Epoch: 18 October)

Date Brightness Start Highest point End Pass type
(mag) Time Alt. Az. Time Alt. Az. Time Alt. Az.
19 Oct - 06:34:33 10° S 06:41:33 21° SE 06:51:36 10° E night (unlit)
19 Oct - 08:50:27 10° SW 09:02:02 63° SSE 09:22:26 10° ENE visible
19 Oct - 11:11:01 10° W 11:27:14 89° S 11:51:17 10° E visible
19 Oct - 13:34:14 10° W 13:55:11 81° SSW 14:17:58 10° ESE visible
19 Oct - 15:59:54 10° WNW 16:21:39 50° SW 16:39:55 10° SSE daylight
19 Oct - 18:32:56 10° W 18:44:13 17° SW 18:53:46 10° SSW daylight
20 Oct - 06:53:48 10° S 07:01:50 30° SE 07:14:38 10° E night (unlit)
20 Oct - 09:11:11 10° WSW 09:23:12 73° SSE 09:44:26 10° ENE visible
20 Oct - 11:32:18 10° W 11:49:05 90° S 12:13:13 10° E visible
20 Oct - 13:55:44 10° WNW 14:16:55 75° SSW 14:39:15 10° ESE visible
20 Oct - 16:22:00 10° WNW 16:42:37 42° SW 16:59:57 10° SSE daylight
21 Oct - 07:13:38 10° SSW 07:22:17 39° SE 07:37:06 10° ENE visible
21 Oct - 09:32:05 10° WSW 09:44:33 80° SSE 10:06:27 10° E visible
21 Oct - 11:53:38 10° W 12:10:58 89° S 12:35:06 10° E visible
21 Oct - 14:17:15 10° WNW 14:38:29 67° SSW 15:00:18 10° SE visible
21 Oct - 16:44:30 10° W 17:03:25 33° SW 17:19:33 10° S daylight
22 Oct - 05:23:25 10° SE 05:23:57 10° ESE 05:24:29 10° ESE night (unlit)
22 Oct - 07:33:52 10° SW 07:42:55 50° SE 07:59:17 10° ENE visible
22 Oct - 09:53:07 10° WSW 10:06:05 86° S 10:28:29 10° E visible
22 Oct - 12:14:58 10° W 12:32:49 85° SSW 12:56:52 10° ESE visible
22 Oct - 14:38:51 10° WNW 14:59:55 59° SSW 15:21:03 10° SE visible
22 Oct - 17:07:41 10° W 17:24:08 25° SW 17:38:27 10° S daylight
23 Oct - 05:39:04 10° SSE 05:44:08 17° SE 05:51:00 10° E night (unlit)
23 Oct - 07:54:22 10° SW 08:03:47 61° SSE 08:21:19 10° ENE visible
23 Oct - 10:14:15 10° W 10:27:43 89° S 10:50:32 10° E visible
23 Oct - 12:36:18 10° W 12:54:36 81° SSW 13:18:28 10° ESE visible
23 Oct - 15:00:36 10° WNW 15:21:10 50° SW 15:41:30 10° SSE visible
23 Oct - 17:32:09 10° W 17:44:48 18° SW 17:56:12 10° SSW daylight
24 Oct - 05:58:07 10° S 06:04:24 25° SE 06:14:06 10° E night (unlit)
24 Oct - 08:15:04 10° WSW 08:24:51 72° SSE 08:43:18 10° ENE visible
24 Oct - 10:35:26 10° W 10:49:25 90° S 11:12:35 10° E visible
24 Oct - 12:57:40 10° WNW 13:16:17 74° SSW 13:39:50 10° ESE visible
24 Oct - 15:22:35 10° W 15:42:17 41° SW 16:01:33 10° SSE daylight
24 Oct - 18:00:41 10° WSW 18:05:30 11° SW 18:10:07 10° SW daylight
25 Oct - 06:17:54 10° SSW 06:24:49 35° SE 06:36:31 10° E night (unlit)
25 Oct - 08:35:56 10° WSW 08:46:05 80° SSE 09:05:18 10° E visible
25 Oct - 10:56:38 10° W 11:11:09 88° S 11:34:35 10° E visible
25 Oct - 13:19:03 10° WNW 13:37:52 66° SSW 14:00:57 10° SE visible
25 Oct - 15:44:57 10° W 16:03:17 33° SW 16:21:06 10° SSE daylight
26 Oct - 06:38:07 10° SW 06:45:25 47° SE 06:58:36 10° ENE night (unlit)
26 Oct - 08:56:54 10° WSW 09:07:29 86° S 09:27:21 10° E visible
26 Oct - 11:17:51 10° W 11:32:52 85° SSW 11:56:27 10° ESE visible
26 Oct - 13:40:32 10° WNW 13:59:20 58° SSW 14:21:46 10° SE visible
26 Oct - 16:07:59 10° W 16:24:13 25° SW 16:39:58 10° S daylight
27 Oct - 04:43:59 10° SSE 04:47:09 13° SE 04:51:00 10° ESE visible
27 Oct - 06:58:35 10° SW 07:06:13 59° SSE 07:20:33 10° ENE night (unlit)
27 Oct - 09:17:58 10° W 09:28:58 89° S 09:49:26 10° E visible
27 Oct - 11:39:04 10° W 11:54:32 79° SSW 12:18:09 10° ESE visible
27 Oct - 14:02:09 10° WNW 14:20:41 49° SW 14:42:13 10° SSE visible
27 Oct - 16:32:18 10° W 16:45:07 18° SW 16:57:38 10° SSW daylight
28 Oct - 05:02:39 10° S 05:07:27 21° SE 05:14:20 10° E visible
28 Oct - 07:19:16 10° WSW 07:27:12 70° SSE 07:42:27 10° ENE night (unlit)
28 Oct - 09:39:03 10° W 09:50:31 90° S 10:11:31 10° E visible
28 Oct - 12:00:18 10° WNW 12:16:08 72° SSW 12:39:36 10° ESE visible
28 Oct - 14:24:01 10° W 14:41:56 40° SW 15:02:15 10° SSE visible
28 Oct - 17:00:19 10° WSW 17:06:05 11° SW 17:11:48 10° SW daylight
